Find Starlink 32504

NORAD ID: 62024 Int'l Des: 2024-213 Owner: SPXS Country: US Constellation: starlink operational
LEOCIRCULAR

Live Position

Loading 3D Globe...

About Starlink 32504

Description loading...

Upcoming Passes

Passes for default location (London). Set your location on the main map for personalized predictions.

Altitude History

Loading altitude history...

Two-Line Element Set

1 62024U 24213S 26129.61074891 .00018645 00000-0 64018-3 0 9998
2 62024 53.1574 245.0471 0001365 32.2445 327.8639 15.30192950 82484
Epoch: May 9, 2026 • Age: 23 hours

Current Status

Altitude 493.8 km
Velocity 7.62 km/s
Sub-Earth Point -52.46°S, 89.1°E
Launch Date Nov 18, 2024
Age 1.4 years
Type internet

Technical Details

Classification Payload
Mass 730.00 kg
Dry Mass 700.00 kg
Total Mass 730.00 kg
Length 0.30 m
Diameter 4.10 m
Span 29.00 m
Shape Box + pan
Manufacturer SPXS
Bus Type Starlink V2M
Phase Status In Orbit
Owner/State SPXS/US

Most Searched